This is the latest recevied weather packets stored in our database for station/object DL9GRB-13. If no packets are shown the sender has not sent any weather packets the latest 10 day(s).
| Time | Temp. | Humidity | Pressure | Rain* | Wind** | Luminosity | Snow |
|---|---|---|---|---|---|---|---|
| 1777303205 | 11.67° C | 40% | 1023 hPa | 0 mm | - | 210 W/m² | - |
| 1777303025 | 11.67° C | 40% | 1023.2 hPa | 0 mm | - | 227 W/m² | - |
| 1777302845 | 11.67° C | 39% | 1023 hPa | 0 mm | - | 238 W/m² | - |
| 1777302665 | 11.67° C | 39% | 1023.1 hPa | 0 mm | - | 236 W/m² | - |
| 1777302485 | 11.67° C | 40% | 1023.1 hPa | 0 mm | - | 245 W/m² | - |
| 1777302305 | 11.67° C | 39% | 1023.3 hPa | 0 mm | - | 245 W/m² | - |
| 1777302125 | 11.67° C | 39% | 1023.2 hPa | 0 mm | - | 257 W/m² | - |
| 1777301945 | 11.67° C | 40% | 1023 hPa | 0 mm | - | 261 W/m² | - |
| 1777301765 | 11.67° C | 41% | 1023.1 hPa | 0 mm | - | 254 W/m² | - |
| 1777301585 | 11.67° C | 40% | 1023.2 hPa | 0 mm | - | 260 W/m² | - |
| 1777301405 | 11.67° C | 41% | 1023.3 hPa | 0 mm | - | 277 W/m² | - |
| 1777301225 | 11.67° C | 44% | 1023.2 hPa | 0 mm | - | 300 W/m² | - |
| 1777301045 | 11.67° C | 44% | 1023.2 hPa | 0 mm | - | 303 W/m² | - |
| 1777300865 | 11.67° C | 43% | 1023.2 hPa | 0 mm | - | 258 W/m² | - |
| 1777300685 | 11.67° C | 44% | 1023.4 hPa | 0 mm | - | 258 W/m² | - |
| 1777300505 | 11.67° C | 43% | 1023.2 hPa | 0 mm | - | 284 W/m² | - |
| 1777300325 | 11.67° C | 43% | 1023.5 hPa | 0 mm | - | 354 W/m² | - |
| 1777300145 | 11.67° C | 45% | 1023.4 hPa | 0 mm | - | 302 W/m² | - |
| 1777299965 | 11.67° C | 46% | 1023.5 hPa | 0 mm | - | 297 W/m² | - |
| 1777299785 | 11.67° C | 45% | 1023.5 hPa | 0 mm | - | 334 W/m² | - |
| 1777299605 | 11.67° C | 45% | 1023.5 hPa | 0 mm | - | 380 W/m² | - |
| 1777299425 | 11.67° C | 45% | 1023.4 hPa | 0 mm | - | 401 W/m² | - |
| 1777299245 | 11.67° C | 44% | 1023.5 hPa | 0 mm | - | 382 W/m² | - |
| 1777299065 | 12.22° C | 43% | 1023.5 hPa | 0 mm | - | 415 W/m² | - |
| 1777298885 | 12.22° C | 43% | 1023.6 hPa | 0 mm | - | 413 W/m² | - |
* Rain latest hour (hover to see other rain measurements)
** Current wind speed in m/s (hover to see current wind gust speed)